Погода в Генте

Бельгия     51°03′23″N   3°42′33″E
темп.,
°C
ветер,
м/с
пор.,
м/с
влажн.,
%
обл.,
%
осадки,
мм/ч
давл.,
гПа
погр.,
м
4 декабря, сб
сб401:00+5ю51093100 1.0 999393
04:00+4ю359587 0.2 998172
07:00+5юз249587 0.2 997126
10:00+5ююз2796100 0.0 996229
13:00+6зсз51194100 8.8 9941070
16:00+7з61172100 0.3 997891
19:00+5зюз6127778 0.3 999686
22:00+4юз5127998 0.0 999543
5 декабря, вс
вс501:00+4юз5127947 0.0 999537
04:00+3ююз61194100 0.1 998696
07:00+4зюз4495100 3.8 998603
10:00+4ююз349460 0.6 1000192
13:00+6зюз117929 0.6 1001364
16:00+5з238354 0.1 1003194
19:00+4юз229025 0.1 100641
22:00+3юв11919 0.0 100919
6 декабря, пн
пн601:00+3в119525 0.0 101213
04:00+2ююв119670 0.0 101316
07:00+2ю24927 0.0 101369
10:00+4ю3785100 0.0 1013221
13:00+5ю61187100 0.0 1011483
16:00+6ююз71382100 0.1 10071037
19:00+4ююз91896100 3.6 10041318
22:00+6зсз814718 1.3 10061207
7 декабря, вт
вт701:00+5з6137559 1.4 1009891
04:00+4з512795 0.3 1011562
07:00+2зюз511855 0.3 1012341
10:00+3юз48844 0.0 1012259
13:00+5ююз4870100 0.0 1010475
16:00+5ююв51077100 0.0 1006536
19:00+4юв71480100 0.0 1003688
22:00+4ююв71682100 0.3 999901
8 декабря, ср
ср801:00+2ююв61497100 6.3 997753
04:00+3ю51196100 0.9 997480
07:00+3ююз511926 0.9 998381
10:00+3ю511878 0.0 999459
13:00+5ююз488216 0.0 999487
16:00+4ю598898 0.0 1000472
19:00+3ююв498899 0.0 1001296
22:00+2юв410900 0.0 1002289